Archiv-/Tagesdaten

--Timestamp---	Temp	Chill	HIndex	Humid	Dewpt	Wind	HiWind	WindDir	Rain	Barom	        Solar	ET	UV
--------------	----	-----	------	-----	-----	----	------	-------	----	-----	        -----	--	--
20080810 00:05	14.1	14.1	14.1	86	11.7	2	5	157	0.00	1014.700	0	0.000	0
20080810 00:10	13.9	13.9	13.9	86	11.6	0	3	180	0.00	1014.599	0	0.000	0
20080810 00:15	13.9	13.9	13.9	86	11.6	2	5	180	0.00	1014.633	0	0.000	0
20080810 00:20	13.9	13.9	13.9	86	11.6	0	5	180	0.00	1014.633	0	0.000	0
20080810 00:25	13.9	13.9	13.9	86	11.6	0	2	180	0.00	1014.497	0	0.000	0
20080810 00:30	13.9	13.9	13.9	86	11.6	2	8	180	0.00	1014.463	0	0.000	0
20080810 00:35	13.8	13.8	13.8	87	11.7	3	10	180	0.00	1014.565	0	0.000	0
20080810 00:40	13.8	13.8	13.8	87	11.6	2	8	202	0.00	1014.599	0	0.000	0
20080810 00:45	13.8	13.8	13.8	87	11.6	3	11	202	0.00	1014.633	0	0.000	0
20080810 00:50	13.7	13.7	13.7	87	11.6	2	5	202	0.00	1014.633	0	0.000	0
20080810 00:55	13.7	13.7	13.7	87	11.5	0	3	202	0.00	1014.633	0	0.000	0
20080810 01:00	13.6	13.6	13.6	88	11.7	2	5	202	0.00	1014.768	0	0.000	0
20080810 01:05	13.6	13.6	13.6	88	11.6	0	6	202	0.00	1014.734	0	0.000	0
20080810 01:10	13.6	13.6	13.6	88	11.6	0	3	202	0.00	1014.870	0	0.000	0
20080810 01:15	13.6	13.6	13.6	88	11.6	0	2	202	0.00	1014.870	0	0.000	0
20080810 01:20	13.5	13.5	13.5	88	11.5	0	2	202	0.00	1014.937	0	0.000	0
20080810 01:25	13.4	13.4	13.4	88	11.5	0	0	202	0.00	1014.836	0	0.000	0
20080810 01:30	13.5	13.5	13.5	88	11.5	0	3	202	0.00	1014.768	0	0.000	0
20080810 01:35	13.5	13.5	13.5	88	11.5	0	2	202	0.00	1014.700	0	0.000	0
20080810 01:40	13.6	13.6	13.6	88	11.6	2	6	202	0.00	1014.666	0	0.000	0
20080810 01:45	13.5	13.5	13.5	87	11.4	2	5	202	0.00	1014.633	0	0.000	0
20080810 01:50	13.4	13.4	13.4	87	11.3	2	5	202	0.00	1014.666	0	0.000	0
20080810 01:55	13.3	13.3	13.3	87	11.2	0	3	202	0.00	1014.700	0	0.000	0
20080810 02:00	13.3	13.3	13.3	87	11.2	0	5	202	0.00	1014.633	0	0.000	0
20080810 02:05	13.3	13.3	13.3	87	11.2	0	5	202	0.00	1014.497	0	0.000	0
20080810 02:10	13.2	13.2	13.2	87	11.1	2	6	202	0.00	1014.429	0	0.000	0
20080810 02:15	13.2	13.2	13.2	87	11.0	2	6	202	0.00	1014.463	0	0.000	0
20080810 02:20	13.2	13.2	13.2	87	11.0	3	11	202	0.00	1014.362	0	0.000	0
20080810 02:25	13.2	13.2	13.2	87	11.1	5	11	202	0.00	1014.429	0	0.000	0
20080810 02:30	13.2	13.2	13.2	87	11.0	3	6	202	0.00	1014.396	0	0.000	0
20080810 02:35	13.1	13.1	13.1	87	11.0	2	8	202	0.00	1014.429	0	0.000	0
20080810 02:40	13.0	13.0	13.0	87	10.9	2	8	202	0.00	1014.294	0	0.000	0
20080810 02:45	12.9	12.9	12.9	88	11.0	0	3	202	0.00	1014.260	0	0.000	0
20080810 02:50	12.8	12.8	12.8	88	10.9	2	5	202	0.00	1014.226	0	0.000	0
20080810 02:55	12.7	12.7	12.7	88	10.8	0	3	202	0.00	1014.192	0	0.000	0
20080810 03:00	12.7	12.7	12.7	88	10.7	2	5	202	0.00	1014.192	0	0.000	0
20080810 03:05	12.6	12.6	12.6	88	10.7	0	3	202	0.00	1014.159	0	0.000	0
20080810 03:10	12.5	12.5	12.5	88	10.6	0	3	202	0.00	1014.260	0	0.000	0
20080810 03:15	12.4	12.4	12.4	88	10.5	0	3	202	0.00	1014.226	0	0.000	0
20080810 03:20	12.3	12.3	12.3	89	10.6	0	2	202	0.00	1014.159	0	0.000	0
20080810 03:25	12.3	12.3	12.3	89	10.5	0	5	202	0.00	1014.159	0	0.000	0
20080810 03:30	12.3	12.3	12.3	89	10.5	0	5	202	0.00	1014.159	0	0.000	0
20080810 03:35	12.2	12.2	12.2	89	10.5	0	5	202	0.00	1014.159	0	0.000	0
20080810 03:40	12.2	12.2	12.2	89	10.5	0	2	202	0.00	1014.023	0	0.000	0
20080810 03:45	12.1	12.1	12.1	89	10.4	0	3	202	0.00	1014.023	0	0.000	0
20080810 03:50	12.1	12.1	12.1	89	10.3	0	3	202	0.00	1013.955	0	0.000	0
20080810 03:55	12.0	12.0	12.0	89	10.2	2	6	202	0.00	1013.989	0	0.000	0
20080810 04:00	12.0	12.0	12.0	89	10.2	0	3	202	0.00	1014.023	0	0.000	0
20080810 04:05	11.9	11.9	11.9	89	10.2	0	5	202	0.00	1013.786	0	0.000	0
20080810 04:10	11.9	11.9	11.9	89	10.2	0	5	202	0.00	1013.786	0	0.000	0
20080810 04:15	11.9	11.9	11.9	89	10.1	0	3	202	0.00	1013.922	0	0.000	0
20080810 04:20	11.9	11.9	11.9	89	10.1	0	0	202	0.00	1013.854	0	0.000	0
20080810 04:25	11.8	11.8	11.8	89	10.1	0	2	202	0.00	1013.854	0	0.000	0
20080810 04:30	11.8	11.8	11.8	92	10.5	0	5	202	0.00	1013.854	0	0.000	0
20080810 04:35	11.8	11.8	11.8	92	10.5	2	6	202	0.00	1013.820	0	0.000	0
20080810 04:40	11.8	11.8	11.8	92	10.5	2	8	202	0.00	1013.820	0	0.000	0
20080810 04:45	11.8	11.8	11.8	89	10.0	2	5	202	0.00	1013.752	0	0.000	0
20080810 04:50	11.8	11.8	11.8	89	10.0	0	5	202	0.00	1013.752	0	0.000	0
20080810 04:55	11.8	11.8	11.8	89	10.0	0	2	202	0.00	1013.684	0	0.000	0
20080810 05:00	11.7	11.7	11.7	89	10.0	0	3	202	0.00	1013.651	0	0.000	0
20080810 05:05	11.7	11.7	11.7	89	9.9	0	3	202	0.00	1013.583	0	0.000	0
20080810 05:10	11.6	11.6	11.6	89	9.8	0	2	202	0.00	1013.651	0	0.000	0
20080810 05:15	11.6	11.6	11.6	89	9.8	0	3	202	0.00	1013.684	0	0.000	0
20080810 05:20	11.5	11.5	11.5	90	9.9	0	2	202	0.00	1013.617	0	0.000	0
20080810 05:25	11.4	11.4	11.4	89	9.7	0	2	202	0.00	1013.583	0	0.000	0
20080810 05:30	11.4	11.4	11.4	89	9.7	0	3	202	0.00	1013.549	0	0.000	0
20080810 05:35	11.4	11.4	11.4	89	9.6	0	2	202	0.00	1013.583	0	0.000	0
20080810 05:40	11.3	11.3	11.3	89	9.6	0	3	202	0.00	1013.617	0	0.000	0
20080810 05:45	11.3	11.3	11.3	90	9.8	0	2	202	0.00	1013.583	0	0.000	0
20080810 05:50	11.3	11.3	11.3	90	9.7	0	2	202	0.00	1013.481	0	0.000	0
20080810 05:55	11.3	11.3	11.3	90	9.7	0	2	202	0.00	1013.447	0	0.000	0
20080810 06:00	11.2	11.2	11.2	90	9.6	0	3	202	0.00	1013.414	0	0.000	0
20080810 06:05	11.2	11.2	11.2	90	9.6	0	2	202	0.00	1013.447	0	0.000	0
20080810 06:10	11.2	11.2	11.2	90	9.6	0	2	202	0.00	1013.481	3	0.000	0
20080810 06:15	11.2	11.2	11.2	90	9.6	0	2	202	0.00	1013.414	6	0.000	0
20080810 06:20	11.1	11.1	11.1	90	9.5	0	2	202	0.00	1013.414	7	0.000	0
20080810 06:25	11.2	11.2	11.2	90	9.6	0	3	202	0.00	1013.346	9	0.000	0
20080810 06:30	11.2	11.2	11.2	90	9.6	0	3	202	0.00	1013.414	9	0.000	0
20080810 06:35	11.2	11.2	11.2	90	9.6	0	2	202	0.00	1013.414	14	0.000	0
20080810 06:40	11.2	11.2	11.2	90	9.6	0	3	202	0.00	1013.515	18	0.000	0
20080810 06:45	11.2	11.2	11.2	90	9.6	0	2	202	0.00	1013.549	20	0.000	0
20080810 06:50	11.2	11.2	11.2	90	9.6	0	2	202	0.00	1013.549	23	0.000	0
20080810 06:55	11.3	11.3	11.3	89	9.5	0	5	202	0.00	1013.583	25	0.000	0
20080810 07:00	11.3	11.3	11.3	89	9.6	0	5	202	0.00	1013.515	26	0.000	0
20080810 07:05	11.4	11.4	11.4	89	9.7	0	2	202	0.00	1013.583	29	0.000	0
20080810 07:10	11.6	11.6	11.6	88	9.6	0	5	202	0.00	1013.583	34	0.000	0
20080810 07:15	11.6	11.6	11.6	88	9.7	0	5	202	0.00	1013.651	38	0.000	0
20080810 07:20	11.8	11.8	11.8	88	9.9	0	5	202	0.00	1013.583	40	0.000	0
20080810 07:25	11.9	11.9	11.9	87	9.8	0	5	202	0.00	1013.583	102	0.000	0
20080810 07:30	12.1	12.1	12.1	87	10.0	0	5	202	0.00	1013.583	169	0.000	0
20080810 07:35	12.4	12.4	12.4	87	10.3	2	8	202	0.00	1013.651	187	0.000	0
20080810 07:40	12.7	12.7	12.7	87	10.6	0	3	202	0.00	1013.481	199	0.000	0
20080810 07:45	13.0	13.0	13.0	84	10.4	2	10	180	0.00	1013.515	222	0.000	0
20080810 07:50	13.2	13.2	13.2	84	10.5	2	10	202	0.00	1013.617	187	0.000	0
20080810 07:55	13.4	13.4	13.4	84	10.7	2	6	202	0.00	1013.583	259	0.000	1
20080810 08:00	13.6	13.6	13.6	83	10.8	2	5	202	0.00	1013.617	213	0.060	1
20080810 08:05	13.9	13.9	13.9	82	10.9	0	3	202	0.00	1013.651	269	0.000	1
20080810 08:10	14.1	14.1	14.1	82	11.0	2	6	202	0.00	1013.651	202	0.000	1
20080810 08:15	14.2	14.2	14.2	82	11.2	0	5	202	0.00	1013.447	193	0.000	1
20080810 08:20	14.4	14.4	14.4	81	11.2	0	5	202	0.00	1013.414	205	0.000	1
20080810 08:25	14.6	14.6	14.6	81	11.3	0	2	202	0.00	1013.380	283	0.000	1
20080810 08:30	14.9	14.9	14.9	80	11.5	0	3	180	0.00	1013.414	317	0.000	1
20080810 08:35	15.0	15.0	15.0	80	11.6	0	3	180	0.00	1013.346	308	0.000	1
20080810 08:40	15.1	15.1	15.1	79	11.4	0	5	180	0.00	1013.346	307	0.000	1
20080810 08:45	15.3	15.3	15.3	79	11.7	2	6	180	0.00	1013.312	311	0.000	1
20080810 08:50	15.5	15.5	15.5	78	11.7	2	10	180	0.00	1013.109	327	0.000	1
20080810 08:55	15.8	15.8	15.8	77	11.8	2	8	202	0.00	1013.109	342	0.000	2
20080810 09:00	16.1	16.1	16.1	76	11.8	2	11	202	0.00	1013.041	391	0.120	2
20080810 09:05	16.4	16.4	16.4	76	12.2	2	6	225	0.00	1012.973	406	0.000	2
20080810 09:10	16.7	16.7	16.7	75	12.2	3	10	202	0.00	1012.906	434	0.000	2
20080810 09:15	16.9	16.9	16.9	74	12.2	3	10	225	0.00	1012.939	454	0.000	2
20080810 09:20	17.1	17.1	17.1	73	12.2	3	10	202	0.00	1012.906	464	0.000	2
20080810 09:25	17.4	17.4	17.4	73	12.5	3	10	202	0.00	1012.973	474	0.000	2
20080810 09:30	17.8	17.8	17.8	72	12.7	2	6	225	0.00	1012.906	474	0.000	2
20080810 09:35	18.1	18.1	18.1	70	12.5	3	14	202	0.00	1012.906	468	0.000	3
20080810 09:40	18.1	18.1	18.1	70	12.5	3	11	202	0.00	1012.872	468	0.000	3
20080810 09:45	18.2	18.2	18.2	69	12.4	2	6	225	0.00	1012.804	335	0.000	2
20080810 09:50	18.4	18.4	18.4	68	12.4	3	8	247	0.00	1012.736	78	0.000	2
20080810 09:55	18.7	18.7	18.7	67	12.4	2	6	225	0.00	1012.669	75	0.000	2
20080810 10:00	18.9	18.9	18.9	67	12.6	2	6	270	0.00	1012.601	71	0.160	2
20080810 10:05	18.9	18.9	18.9	65	12.2	3	10	225	0.00	1012.669	68	0.000	2
20080810 10:10	19.1	19.1	19.1	66	12.6	2	6	247	0.00	1012.770	67	0.000	2
20080810 10:15	19.2	19.2	19.2	65	12.4	3	10	225	0.00	1012.702	70	0.000	2
20080810 10:20	19.3	19.3	19.3	64	12.3	3	6	247	0.00	1012.702	110	0.000	2
20080810 10:25	19.4	19.4	19.4	64	12.5	2	5	247	0.00	1012.567	594	0.000	3
20080810 10:30	19.7	19.7	19.7	64	12.7	3	11	247	0.00	1012.567	603	0.000	4
20080810 10:35	19.8	19.8	19.8	61	12.1	3	8	270	0.00	1012.398	619	0.000	4
20080810 10:40	20.1	20.1	20.1	62	12.5	3	11	247	0.00	1012.262	642	0.000	5
20080810 10:45	20.4	20.4	20.4	60	12.4	2	8	247	0.00	1012.262	648	0.000	5
20080810 10:50	20.5	20.5	20.5	59	12.2	2	8	225	0.00	1012.296	632	0.000	5
20080810 10:55	20.8	20.8	20.8	60	12.7	2	11	270	0.00	1012.296	638	0.000	5
20080810 11:00	21.1	21.1	21.1	58	12.5	2	11	225	0.00	1012.127	687	0.220	6
20080810 11:05	21.3	21.3	21.3	57	12.5	2	8	247	0.00	1012.194	675	0.000	6
20080810 11:10	21.5	21.5	21.5	54	11.8	2	6	202	0.00	1012.059	689	0.000	6
20080810 11:15	21.6	21.6	21.6	54	11.8	3	8	270	0.00	1012.059	654	0.000	6
20080810 11:20	21.6	21.6	21.6	54	11.8	2	8	180	0.00	1011.924	693	0.000	6
20080810 11:25	21.6	21.6	21.6	53	11.6	5	10	247	0.00	1011.890	673	0.000	6
20080810 11:30	21.6	21.6	21.6	54	11.8	3	10	225	0.00	1011.856	722	0.000	6
20080810 11:35	21.8	21.8	21.8	53	11.8	3	10	247	0.00	1011.788	740	0.000	6
20080810 11:40	22.1	22.1	22.1	53	12.1	3	10	247	0.00	1011.788	748	0.000	6
20080810 11:45	22.3	22.3	22.3	51	11.6	3	8	247	0.00	1011.822	765	0.000	7
20080810 11:50	22.4	22.4	22.4	52	12.1	0	5	247	0.00	1011.754	742	0.000	7
20080810 11:55	22.6	22.6	22.6	51	11.9	2	8	247	0.00	1011.686	758	0.000	7
20080810 12:00	22.7	22.7	22.7	51	12.0	2	6	247	0.00	1011.653	728	0.340	7
20080810 12:05	22.8	22.8	22.8	52	12.4	3	11	270	0.00	1011.653	709	0.000	7
20080810 12:10	22.7	22.7	22.7	51	12.1	5	10	247	0.00	1011.653	709	0.000	7
20080810 12:15	22.8	22.8	22.8	50	11.8	2	6	225	0.00	1011.551	768	0.000	7
20080810 12:20	22.9	22.9	22.9	50	12.0	2	5	247	0.00	1011.483	749	0.000	7
20080810 12:25	22.9	22.9	22.9	51	12.2	3	8	315	0.00	1011.517	755	0.000	7
20080810 12:30	23.1	23.1	23.1	52	12.7	2	8	292	0.00	1011.416	765	0.000	7
20080810 12:35	23.3	23.3	23.3	50	12.3	5	10	247	0.00	1011.517	750	0.000	7
20080810 12:40	23.3	23.3	23.3	50	12.3	3	10	270	0.00	1011.449	783	0.000	8
20080810 12:45	23.3	23.3	23.3	50	12.3	2	10	270	0.00	1011.314	820	0.000	8
20080810 12:50	23.3	23.3	23.3	50	12.3	3	10	292	0.00	1011.280	715	0.000	7
20080810 12:55	23.2	23.2	23.2	49	11.9	3	8	292	0.00	1011.280	708	0.000	7
20080810 13:00	23.2	23.2	23.2	49	11.9	2	6	270	0.00	1011.246	642	0.360	7
20080810 13:05	23.3	23.3	23.3	51	12.6	2	6	292	0.00	1011.246	819	0.000	8
20080810 13:10	23.6	23.6	23.6	51	12.8	2	5	135	0.00	1011.179	811	0.000	8
20080810 13:15	23.7	23.7	23.7	50	12.6	2	6	337	0.00	1011.111	790	0.000	8
20080810 13:20	23.6	23.6	23.6	49	12.2	0	5	90	0.00	1011.111	793	0.000	8
20080810 13:25	23.8	23.8	23.8	49	12.4	0	2	90	0.00	1011.009	766	0.000	8
20080810 13:30	23.9	23.9	25.3	50	12.8	2	8	292	0.00	1010.941	749	0.000	7
20080810 13:35	23.7	23.7	23.7	50	12.6	3	6	0	0.00	1010.975	770	0.000	8
20080810 13:40	23.5	23.5	23.5	49	12.2	2	6	22	0.00	1010.941	793	0.000	8
20080810 13:45	23.6	23.6	23.6	49	12.3	2	5	45	0.00	1010.908	777	0.000	8
20080810 13:50	23.8	23.8	23.8	49	12.5	2	6	0	0.00	1010.874	732	0.000	7
20080810 13:55	23.8	23.8	23.8	48	12.1	3	8	22	0.00	1010.772	766	0.000	8
20080810 14:00	23.9	23.9	25.4	49	12.6	2	6	292	0.00	1010.704	774	0.380	7
20080810 14:05	24.1	24.1	25.4	49	12.7	2	6	67	0.00	1010.637	790	0.000	8
20080810 14:10	23.9	23.9	25.4	50	12.9	3	8	45	0.00	1010.637	801	0.000	7
20080810 14:15	23.9	23.9	25.4	47	11.9	3	6	22	0.00	1010.671	734	0.000	7
20080810 14:20	24.0	24.0	25.4	49	12.6	2	6	22	0.00	1010.637	716	0.000	7
20080810 14:25	24.1	24.1	25.4	48	12.4	5	8	22	0.00	1010.603	740	0.000	7
20080810 14:30	24.3	24.3	25.5	50	13.2	2	8	292	0.00	1010.501	767	0.000	7
20080810 14:35	24.7	24.7	25.6	45	11.9	3	10	292	0.00	1010.433	755	0.000	7
20080810 14:40	25.1	25.1	25.8	45	12.3	2	6	292	0.00	1010.196	736	0.000	7
20080810 14:45	25.4	25.4	25.9	42	11.5	2	8	270	0.00	1010.027	682	0.000	6
20080810 14:50	25.5	25.5	26.0	41	11.3	3	8	270	0.00	1009.993	716	0.000	6
20080810 14:55	25.8	25.8	26.1	42	11.9	3	11	247	0.00	1009.959	750	0.000	7
20080810 15:00	25.9	25.9	26.2	40	11.3	2	6	270	0.00	1009.756	736	0.380	6
20080810 15:05	25.7	25.7	26.1	41	11.5	2	3	45	0.00	1009.824	738	0.000	6
20080810 15:10	25.8	25.8	26.2	44	12.6	0	5	157	0.00	1009.688	737	0.000	6
20080810 15:15	26.2	26.2	26.4	42	12.2	3	14	202	0.00	1009.621	714	0.000	6
20080810 15:20	26.2	26.2	26.3	40	11.5	2	6	202	0.00	1009.519	701	0.000	6
20080810 15:25	25.8	25.8	26.1	40	11.1	6	19	135	0.00	1009.553	663	0.000	6
20080810 15:30	25.9	25.9	26.2	42	12.0	3	10	292	0.00	1009.553	689	0.000	6
20080810 15:35	26.1	26.1	26.3	42	12.1	2	8	270	0.00	1009.451	686	0.000	6
20080810 15:40	25.9	25.9	26.1	39	10.9	5	16	292	0.00	1009.384	681	0.000	5
20080810 15:45	25.9	25.9	26.2	41	11.7	5	14	292	0.00	1009.350	684	0.000	5
20080810 15:50	26.1	26.1	26.2	39	11.1	3	8	247	0.00	1009.214	679	0.000	5
20080810 15:55	26.3	26.3	26.4	40	11.6	2	5	225	0.00	1009.214	666	0.000	5
20080810 16:00	26.5	26.5	26.5	40	11.8	2	5	270	0.00	1009.079	646	0.360	5
20080810 16:05	26.6	26.6	26.6	40	11.9	3	8	247	0.00	1009.147	641	0.000	5
20080810 16:10	26.7	26.7	26.6	39	11.6	3	10	247	0.00	1009.079	630	0.000	4
20080810 16:15	26.6	26.6	26.5	39	11.5	6	14	292	0.00	1009.147	607	0.000	4
20080810 16:20	26.6	26.6	26.5	38	11.1	2	6	270	0.00	1009.045	602	0.000	4
20080810 16:25	26.4	26.4	26.4	37	10.6	5	14	292	0.00	1009.079	597	0.000	4
20080810 16:30	26.4	26.4	26.4	39	11.3	2	10	292	0.00	1009.045	585	0.000	4
20080810 16:35	26.6	26.6	26.4	37	10.7	2	6	0	0.00	1009.045	571	0.000	4
20080810 16:40	26.8	26.8	26.6	37	10.9	0	5	315	0.00	1008.910	568	0.000	4
20080810 16:45	27.2	27.2	26.9	37	11.2	2	6	292	0.00	1008.808	554	0.000	3
20080810 16:50	27.2	27.2	26.8	37	11.2	2	6	292	0.00	1008.876	528	0.000	3
20080810 16:55	26.8	26.8	26.6	36	10.5	2	8	0	0.00	1008.876	535	0.000	3
20080810 17:00	26.7	26.7	26.5	36	10.3	3	8	247	0.00	1008.876	474	0.320	3
20080810 17:05	26.5	26.5	26.4	38	11.0	2	5	0	0.00	1008.842	431	0.000	3
20080810 17:10	26.4	26.4	26.6	42	12.5	0	5	292	0.00	1008.842	450	0.000	3
20080810 17:15	26.4	26.4	26.4	38	11.0	3	6	270	0.00	1008.740	451	0.000	2
20080810 17:20	26.4	26.4	26.5	40	11.7	3	8	292	0.00	1008.774	447	0.000	2
20080810 17:25	26.4	26.4	26.4	37	10.6	5	10	270	0.00	1008.740	408	0.000	2
20080810 17:30	26.4	26.4	26.4	38	11.0	5	8	292	0.00	1008.706	277	0.000	2
20080810 17:35	26.6	26.6	26.5	38	11.1	5	16	292	0.00	1008.740	436	0.000	2
20080810 17:40	26.7	26.7	26.5	37	10.8	5	14	292	0.00	1008.740	437	0.000	2
20080810 17:45	26.8	26.8	26.6	37	10.9	3	8	292	0.00	1008.673	408	0.000	2
20080810 17:50	27.1	27.1	26.8	37	11.1	2	6	292	0.00	1008.673	392	0.000	2
20080810 17:55	27.2	27.2	26.9	38	11.6	0	5	270	0.00	1008.639	383	0.000	2
20080810 18:00	27.2	27.2	26.9	37	11.2	3	10	270	0.00	1008.605	373	0.240	1
20080810 18:05	26.8	26.8	26.7	38	11.3	2	6	292	0.00	1008.537	198	0.000	1
20080810 18:10	26.7	26.7	26.6	39	11.6	3	8	270	0.00	1008.571	268	0.000	1
20080810 18:15	26.9	26.9	26.7	39	11.7	2	6	270	0.00	1008.503	313	0.000	1
20080810 18:20	27.1	27.1	26.8	38	11.5	5	8	292	0.00	1008.503	323	0.000	1
20080810 18:25	27.1	27.1	26.8	38	11.6	5	8	292	0.00	1008.469	303	0.000	1
20080810 18:30	27.2	27.2	26.9	38	11.6	5	10	292	0.00	1008.469	255	0.000	1
20080810 18:35	27.1	27.1	26.8	38	11.5	3	8	292	0.00	1008.469	245	0.000	1
20080810 18:40	26.8	26.8	26.7	39	11.6	5	10	292	0.00	1008.571	255	0.000	1
20080810 18:45	26.7	26.7	26.6	39	11.6	3	8	270	0.00	1008.503	229	0.000	1
20080810 18:50	26.3	26.3	26.3	39	11.2	3	8	292	0.00	1008.537	45	0.000	0
20080810 18:55	25.8	25.8	26.1	41	11.6	3	5	292	0.00	1008.673	48	0.000	0
20080810 19:00	25.4	25.4	26.0	44	12.2	0	5	292	0.00	1008.639	44	0.140	0
20080810 19:05	25.0	25.0	25.8	47	12.9	0	2	292	0.00	1008.469	49	0.000	0
20080810 19:10	24.7	24.7	25.7	45	12.0	0	2	292	0.00	1008.503	47	0.000	0
20080810 19:15	24.6	24.6	25.6	45	11.9	0	3	292	0.00	1008.605	41	0.000	0
20080810 19:20	24.6	24.6	25.6	46	12.2	0	2	292	0.00	1008.605	34	0.000	0
20080810 19:25	24.5	24.5	25.6	47	12.4	0	3	292	0.00	1008.605	32	0.000	0
20080810 19:30	24.4	24.4	25.5	45	11.7	2	5	292	0.00	1008.673	34	0.000	0
20080810 19:35	24.3	24.3	25.5	45	11.6	2	6	292	0.00	1008.605	34	0.000	0
20080810 19:40	24.3	24.3	25.5	46	11.9	2	5	292	0.00	1008.673	31	0.000	0
20080810 19:45	24.2	24.2	25.4	46	11.8	2	5	292	0.00	1008.706	29	0.000	0
20080810 19:50	24.1	24.1	25.4	47	12.0	0	3	292	0.00	1008.639	25	0.000	0
20080810 19:55	23.9	23.9	25.4	50	12.9	0	0	292	0.00	1008.706	17	0.000	0
20080810 20:00	23.8	23.8	23.8	51	13.0	0	0	292	0.00	1008.706	14	0.020	0
20080810 20:05	23.6	23.6	23.6	53	13.4	0	0	292	0.00	1008.537	15	0.000	0
20080810 20:10	23.3	23.3	23.3	55	13.8	0	0	292	0.00	1008.571	11	0.000	0
20080810 20:15	23.1	23.1	23.1	55	13.5	0	0	292	0.00	1008.605	9	0.000	0
20080810 20:20	22.8	22.8	22.8	57	13.8	0	0	292	0.00	1008.673	7	0.000	0
20080810 20:25	22.5	22.5	22.5	56	13.3	0	0	292	0.00	1008.673	5	0.000	0
20080810 20:30	22.2	22.2	22.2	57	13.3	0	0	292	0.00	1008.876	2	0.000	0
20080810 20:35	21.9	21.9	21.9	57	13.0	0	0	292	0.00	1008.943	0	0.000	0
20080810 20:40	21.7	21.7	21.7	59	13.3	0	0	292	0.00	1008.910	0	0.000	0
20080810 20:45	21.4	21.4	21.4	58	12.8	0	0	292	0.00	1008.977	0	0.000	0
20080810 20:50	21.1	21.1	21.1	59	12.8	0	0	292	0.00	1009.079	0	0.000	0
20080810 20:55	20.9	20.9	20.9	61	13.1	0	0	292	0.00	1009.214	0	0.000	0
20080810 21:00	20.6	20.6	20.6	63	13.3	0	0	292	0.00	1009.214	0	0.020	0
20080810 21:05	20.4	20.4	20.4	63	13.1	0	0	292	0.00	1009.079	0	0.000	0
20080810 21:10	20.2	20.2	20.2	64	13.1	0	0	292	0.00	1009.181	0	0.000	0
20080810 21:15	20.0	20.0	20.0	65	13.2	0	0	292	0.00	1009.181	0	0.000	0
20080810 21:20	19.8	19.8	19.8	66	13.3	0	0	292	0.00	1009.282	0	0.000	0
20080810 21:25	19.7	19.7	19.7	67	13.4	0	0	292	0.00	1009.451	0	0.000	0
20080810 21:30	19.5	19.5	19.5	67	13.2	0	2	292	0.00	1009.519	0	0.000	0
20080810 21:35	19.4	19.4	19.4	66	12.9	0	0	292	0.00	1009.418	0	0.000	0
20080810 21:40	19.4	19.4	19.4	66	12.9	0	2	292	0.00	1009.451	0	0.000	0
20080810 21:45	19.3	19.3	19.3	68	13.3	0	0	292	0.00	1009.485	0	0.000	0
20080810 21:50	19.2	19.2	19.2	68	13.2	0	0	292	0.00	1009.451	0	0.000	0
20080810 21:55	19.1	19.1	19.1	69	13.3	0	2	292	0.00	1009.418	0	0.000	0
20080810 22:00	19.1	19.1	19.1	67	12.8	0	2	292	0.00	1009.485	0	0.020	0
20080810 22:05	19.1	19.1	19.1	67	12.8	0	2	292	0.00	1009.214	0	0.000	0
20080810 22:10	19.1	19.1	19.1	68	13.0	0	5	292	0.00	1009.181	0	0.000	0
20080810 22:15	19.0	19.0	19.0	67	12.7	0	3	180	0.00	1009.214	0	0.000	0
20080810 22:20	19.0	19.0	19.0	67	12.7	0	3	180	0.00	1009.350	0	0.000	0
20080810 22:25	18.9	18.9	18.9	67	12.7	0	2	180	0.00	1009.316	0	0.000	0
20080810 22:30	18.8	18.8	18.8	67	12.6	0	3	180	0.00	1009.316	0	0.000	0
20080810 22:35	18.7	18.7	18.7	67	12.5	0	3	180	0.00	1009.350	0	0.000	0
20080810 22:40	18.7	18.7	18.7	67	12.4	0	2	180	0.00	1009.384	0	0.000	0
20080810 22:45	18.5	18.5	18.5	67	12.3	0	3	180	0.00	1009.519	0	0.000	0
20080810 22:50	18.4	18.4	18.4	67	12.1	0	5	180	0.00	1009.485	0	0.000	0
20080810 22:55	18.3	18.3	18.3	67	12.1	2	6	180	0.00	1009.451	0	0.000	0
20080810 23:00	18.3	18.3	18.3	67	12.1	2	6	180	0.00	1009.418	0	0.020	0
20080810 23:05	18.3	18.3	18.3	67	12.0	2	5	180	0.00	1009.214	0	0.000	0
20080810 23:10	18.2	18.2	18.2	67	11.9	0	3	180	0.00	1009.214	0	0.000	0
20080810 23:15	18.1	18.1	18.1	67	11.8	2	8	180	0.00	1009.113	0	0.000	0
20080810 23:20	18.0	18.0	18.0	68	12.0	2	6	180	0.00	1009.214	0	0.000	0
20080810 23:25	17.9	17.9	17.9	68	11.9	2	5	180	0.00	1009.113	0	0.000	0
20080810 23:30	17.8	17.8	17.8	69	12.1	2	5	180	0.00	1009.181	0	0.000	0
20080810 23:35	17.8	17.8	17.8	69	12.0	0	3	180	0.00	1009.248	0	0.000	0
20080810 23:40	17.7	17.7	17.7	69	12.0	0	3	180	0.00	1009.214	0	0.000	0
20080810 23:45	17.7	17.7	17.7	70	12.1	2	5	180	0.00	1009.181	0	0.000	0
20080810 23:50	17.7	17.7	17.7	69	11.9	2	5	180	0.00	1009.214	0	0.000	0
20080810 23:55	17.6	17.6	17.6	69	11.9	0	2	180	0.00	1009.214	0	0.000	0
20080810 24:00	17.7	17.7	17.7	68	11.7	0	3	180	0.00	1009.214	0	0.020	0



Please note the license to use and transfer of this data:
http://creativecommons.org/licenses/by-nc-sa/3.0/deed.en

Bitte beachten sie die Lizenz zur Verwertung und Weitergabe der Daten:
http://creativecommons.org/licenses/by-nc-sa/3.0/deed.de

zurück zur Übersicht der Archivdaten (Monats und Tagesdaten)

Cookies helfen bei der Bereitstellung von Inhalten. Durch die Nutzung dieser Seiten erklärst du dich damit einverstanden, dass Cookies auf deinem Rechner gespeichert werden. Weitere Information